Location: Quedlinburg
(51.7921°N, 11.1414°E)
Time: 21:57:03
(UTC+02:00)

RS-15 - Pass Details

Date: 11 March 2026
Orbit: 1893 x 2152 km, 64.8° (Epoch: 17 April)

Event Time Altitude Azimuth Distance (km) Brightness Sun altitude
Rises 18:45:05 0° 146° (SE) 5,264 9.9 -5.8°
Reaches altitude 10° 18:50:07 10° 127° (SE) 4,276 9.3 -6.6°
Maximum altitude 18:55:49 16° 94° (E) 3,828 8.9 -7.5°
Drops below altitude 10° 19:01:33 10° 62° (ENE) 4,339 9.4 -8.3°
Sets 19:06:40 0° 43° (NE) 5,381 10.0 -9.1°
